Year,Month,Day,Hour,Minute,Value (Times are PST for windgust in km/hr)
2020,10,16,00,21,3.20
2020,10,16,00,23,3.20
2020,10,16,00,27,1.60
2020,10,16,00,43,4.80
2020,10,16,00,44,3.20
2020,10,16,01,30,1.60
2020,10,16,01,40,4.80
2020,10,16,01,41,4.80
2020,10,16,01,53,3.20
2020,10,16,01,54,3.20
2020,10,16,01,55,1.60
2020,10,16,02,06,1.60
2020,10,16,02,11,3.20
2020,10,16,03,05,1.60
2020,10,16,03,08,4.80
2020,10,16,03,39,4.80
2020,10,16,03,45,3.20
2020,10,16,03,50,4.80
2020,10,16,04,00,4.80
2020,10,16,04,48,3.20
2020,10,16,04,49,1.60
2020,10,16,05,06,3.20
2020,10,16,05,07,4.80
2020,10,16,05,11,4.80
2020,10,16,05,12,4.80
2020,10,16,05,14,1.60
2020,10,16,05,17,3.20
2020,10,16,05,18,6.40
2020,10,16,05,19,6.40
2020,10,16,05,20,6.40
2020,10,16,05,21,8.10
2020,10,16,05,22,9.60
2020,10,16,05,23,6.40
2020,10,16,05,24,8.10
2020,10,16,05,25,6.40
2020,10,16,05,29,1.60
2020,10,16,05,30,4.80
2020,10,16,05,31,4.80
2020,10,16,05,32,8.10
2020,10,16,05,33,9.60
2020,10,16,05,34,11.30
2020,10,16,05,35,9.60
2020,10,16,05,36,9.60
2020,10,16,05,37,8.10
2020,10,16,05,38,3.20
2020,10,16,05,39,9.60
2020,10,16,05,40,8.10
2020,10,16,05,41,12.90
2020,10,16,05,42,9.60
2020,10,16,05,43,9.60
2020,10,16,05,44,9.60
2020,10,16,05,45,6.40
2020,10,16,05,46,6.40
2020,10,16,05,49,11.30
2020,10,16,05,50,11.30
2020,10,16,05,52,3.20
2020,10,16,05,53,6.40
2020,10,16,05,54,1.60
2020,10,16,05,56,4.80
2020,10,16,05,57,3.20
2020,10,16,05,58,1.60
2020,10,16,05,59,8.10
2020,10,16,06,00,8.10
2020,10,16,06,01,8.10
2020,10,16,06,02,14.50
2020,10,16,06,03,9.60
2020,10,16,06,04,16.10
2020,10,16,06,05,12.90
2020,10,16,06,06,8.10
2020,10,16,06,07,4.80
2020,10,16,06,08,8.10
2020,10,16,06,09,11.30
2020,10,16,06,10,6.40
2020,10,16,06,11,16.10
2020,10,16,06,12,8.10
2020,10,16,06,13,9.60
2020,10,16,06,14,8.10
2020,10,16,06,15,9.60
2020,10,16,06,16,8.10
2020,10,16,06,17,9.60
2020,10,16,06,18,6.40
2020,10,16,06,19,6.40
2020,10,16,06,20,11.30
2020,10,16,06,21,6.40
2020,10,16,06,22,6.40
2020,10,16,06,23,12.90
2020,10,16,06,24,8.10
2020,10,16,06,25,8.10
2020,10,16,06,26,17.70
2020,10,16,06,27,12.90
2020,10,16,06,28,12.90
2020,10,16,06,29,16.10
2020,10,16,06,30,9.60
2020,10,16,06,31,9.60
2020,10,16,06,32,16.10
2020,10,16,06,33,14.50
2020,10,16,06,34,16.10
2020,10,16,06,35,16.10
2020,10,16,06,36,19.30
2020,10,16,06,37,16.10
2020,10,16,06,38,16.10
2020,10,16,06,39,16.10
2020,10,16,06,40,11.30
2020,10,16,06,41,17.70
2020,10,16,06,42,9.60
2020,10,16,06,43,16.10
2020,10,16,06,44,12.90
2020,10,16,06,45,11.30
2020,10,16,06,46,20.90
2020,10,16,06,47,16.10
2020,10,16,06,48,16.10
2020,10,16,06,49,8.10
2020,10,16,06,50,11.30
2020,10,16,06,51,19.30
2020,10,16,06,52,20.90
2020,10,16,06,53,12.90
2020,10,16,06,54,9.60
2020,10,16,06,55,12.90
2020,10,16,06,56,11.30
2020,10,16,06,57,11.30
2020,10,16,06,58,17.70
2020,10,16,06,59,9.60
2020,10,16,07,00,8.10
2020,10,16,07,01,14.50
2020,10,16,07,02,8.10
2020,10,16,07,03,17.70
2020,10,16,07,04,14.50
2020,10,16,07,05,17.70
2020,10,16,07,06,12.90
2020,10,16,07,07,11.30
2020,10,16,07,08,8.10
2020,10,16,07,09,8.10
2020,10,16,07,10,9.60
2020,10,16,07,11,1.60
2020,10,16,07,12,8.10
2020,10,16,07,13,8.10
2020,10,16,07,14,8.10
2020,10,16,07,15,8.10
2020,10,16,07,16,8.10
2020,10,16,07,17,8.10
2020,10,16,07,18,8.10
2020,10,16,07,19,8.10
2020,10,16,07,20,8.10
2020,10,16,07,21,8.10
2020,10,16,07,22,8.10
2020,10,16,08,29,19.30
2020,10,16,08,30,19.30
2020,10,16,08,31,20.90
2020,10,16,08,32,17.70
2020,10,16,08,33,8.10
2020,10,16,08,34,14.50
2020,10,16,08,35,17.70
2020,10,16,08,36,8.10
2020,10,16,08,37,9.60
2020,10,16,08,38,6.40
2020,10,16,08,39,16.10
2020,10,16,08,40,8.10
2020,10,16,08,41,14.50
2020,10,16,08,42,19.30
2020,10,16,08,43,14.50
2020,10,16,08,44,14.50
2020,10,16,08,45,16.10
2020,10,16,08,46,11.30
2020,10,16,08,47,16.10
2020,10,16,08,48,11.30
2020,10,16,08,49,11.30
2020,10,16,08,50,17.70
2020,10,16,08,51,8.10
2020,10,16,08,52,14.50
2020,10,16,08,53,16.10
2020,10,16,08,54,9.60
2020,10,16,08,55,14.50
2020,10,16,08,56,9.60
2020,10,16,08,57,6.40
2020,10,16,08,58,8.10
2020,10,16,08,59,11.30
2020,10,16,09,00,14.50
2020,10,16,09,01,11.30
2020,10,16,09,02,19.30
2020,10,16,09,03,9.60
2020,10,16,09,04,11.30
2020,10,16,09,05,11.30
2020,10,16,09,06,11.30
2020,10,16,09,07,9.60
2020,10,16,09,08,8.10
2020,10,16,09,09,9.60
2020,10,16,09,10,11.30
2020,10,16,09,11,16.10
2020,10,16,09,12,11.30
2020,10,16,09,13,16.10
2020,10,16,09,14,9.60
2020,10,16,09,15,9.60
2020,10,16,09,16,12.90
2020,10,16,09,17,9.60
2020,10,16,09,18,16.10
2020,10,16,09,19,9.60
2020,10,16,09,20,8.10
2020,10,16,09,21,9.60
2020,10,16,09,22,11.30
2020,10,16,09,23,8.10
2020,10,16,09,24,12.90
2020,10,16,09,25,6.40
2020,10,16,09,26,8.10
2020,10,16,09,27,6.40
2020,10,16,09,28,8.10
2020,10,16,09,29,11.30
2020,10,16,09,30,9.60
2020,10,16,09,31,6.40
2020,10,16,09,32,11.30
2020,10,16,09,33,14.50
2020,10,16,09,34,3.20
2020,10,16,09,35,6.40
2020,10,16,09,36,8.10
2020,10,16,09,37,8.10
2020,10,16,09,38,8.10
2020,10,16,09,39,6.40
2020,10,16,09,40,6.40
2020,10,16,09,41,8.10
2020,10,16,09,42,6.40
2020,10,16,09,43,8.10
2020,10,16,09,44,4.80
2020,10,16,09,45,8.10
2020,10,16,09,46,8.10
2020,10,16,09,47,9.60
2020,10,16,09,48,6.40
2020,10,16,09,49,3.20
2020,10,16,09,51,8.10
2020,10,16,09,52,14.50
2020,10,16,09,53,1.60
2020,10,16,09,54,8.10
2020,10,16,09,55,6.40
2020,10,16,09,56,4.80
2020,10,16,09,57,3.20
2020,10,16,10,01,6.40
2020,10,16,10,02,6.40
2020,10,16,10,03,20.90
2020,10,16,10,04,14.50
2020,10,16,10,05,6.40
2020,10,16,10,06,6.40
2020,10,16,10,07,11.30
2020,10,16,10,08,6.40
2020,10,16,10,10,4.80
2020,10,16,10,11,1.60
2020,10,16,10,12,1.60
2020,10,16,10,13,6.40
2020,10,16,10,14,8.10
2020,10,16,10,15,4.80
2020,10,16,10,16,8.10
2020,10,16,10,17,4.80
2020,10,16,10,18,11.30
2020,10,16,10,19,19.30
2020,10,16,10,20,20.90
2020,10,16,10,21,20.90
2020,10,16,10,22,11.30
2020,10,16,10,23,8.10
2020,10,16,10,24,4.80
2020,10,16,10,25,6.40
2020,10,16,10,26,11.30
2020,10,16,10,27,12.90
2020,10,16,10,28,14.50
2020,10,16,10,29,8.10
2020,10,16,10,30,16.10
2020,10,16,10,31,16.10
2020,10,16,10,32,12.90
2020,10,16,10,33,9.60
2020,10,16,10,34,16.10
2020,10,16,10,35,25.70
2020,10,16,10,36,22.50
2020,10,16,10,37,24.20
2020,10,16,10,38,17.70
2020,10,16,10,39,24.20
2020,10,16,10,40,17.70
2020,10,16,10,41,19.30
2020,10,16,10,42,19.30
2020,10,16,10,43,14.50
2020,10,16,10,44,14.50
2020,10,16,10,45,24.20
2020,10,16,10,46,22.50
2020,10,16,10,47,19.30
2020,10,16,10,48,24.20
2020,10,16,10,49,20.90
2020,10,16,10,50,24.20
2020,10,16,10,51,24.20
2020,10,16,10,52,12.90
2020,10,16,10,53,33.80
2020,10,16,10,54,29.00
2020,10,16,10,55,11.30
2020,10,16,10,56,22.50
2020,10,16,10,57,27.40
2020,10,16,10,58,29.00
2020,10,16,10,59,32.20
2020,10,16,11,00,40.20
2020,10,16,11,01,17.70
2020,10,16,11,02,30.60
2020,10,16,11,03,32.20
2020,10,16,11,04,27.40
2020,10,16,11,05,32.20
2020,10,16,11,06,27.40
2020,10,16,11,07,37.00
2020,10,16,11,08,24.20
2020,10,16,11,09,29.00
2020,10,16,11,10,32.20
2020,10,16,11,11,29.00
2020,10,16,11,12,22.50
2020,10,16,11,13,24.20
2020,10,16,11,14,32.20
2020,10,16,11,15,27.40
2020,10,16,11,16,32.20
2020,10,16,11,17,29.00
2020,10,16,11,18,37.00
2020,10,16,11,19,30.60
2020,10,16,11,20,38.60
2020,10,16,11,21,37.00
2020,10,16,11,22,37.00
2020,10,16,11,23,37.00
2020,10,16,11,24,32.20
2020,10,16,11,25,35.40
2020,10,16,11,26,40.20
2020,10,16,11,27,33.80
2020,10,16,11,28,22.50
2020,10,16,11,29,32.20
2020,10,16,11,30,32.20
2020,10,16,11,31,29.00
2020,10,16,11,32,29.00
2020,10,16,11,33,27.40
2020,10,16,11,34,17.70
2020,10,16,11,35,33.80
2020,10,16,11,36,30.60
2020,10,16,11,37,25.70
2020,10,16,11,38,27.40
2020,10,16,11,39,32.20
2020,10,16,11,40,17.70
2020,10,16,11,41,19.30
2020,10,16,11,42,24.20
2020,10,16,11,43,24.20
2020,10,16,11,44,17.70
2020,10,16,11,45,25.70
2020,10,16,11,46,29.00
2020,10,16,11,47,27.40
2020,10,16,11,48,24.20
2020,10,16,11,49,32.20
2020,10,16,11,50,27.40
2020,10,16,11,51,19.30
2020,10,16,11,52,22.50
2020,10,16,11,53,27.40
2020,10,16,11,54,24.20
2020,10,16,11,55,22.50
2020,10,16,11,56,27.40
2020,10,16,11,57,25.70
2020,10,16,11,58,19.30
2020,10,16,11,59,19.30
2020,10,16,12,00,29.00
2020,10,16,12,01,27.40
2020,10,16,12,02,19.30
2020,10,16,12,03,16.10
2020,10,16,12,04,27.40
2020,10,16,12,05,33.80
2020,10,16,12,06,25.70
2020,10,16,12,07,25.70
2020,10,16,12,08,24.20
2020,10,16,12,09,29.00
2020,10,16,12,10,25.70
2020,10,16,12,11,22.50
2020,10,16,12,12,22.50
2020,10,16,12,13,16.10
2020,10,16,12,14,32.20
2020,10,16,12,15,22.50
2020,10,16,12,16,25.70
2020,10,16,12,17,29.00
2020,10,16,12,18,24.20
2020,10,16,12,19,29.00
2020,10,16,12,20,27.40
2020,10,16,12,21,25.70
2020,10,16,12,22,19.30
2020,10,16,12,23,8.10
2020,10,16,12,24,24.20
2020,10,16,12,25,24.20
2020,10,16,12,26,27.40
2020,10,16,12,27,29.00
2020,10,16,12,28,16.10
2020,10,16,12,29,22.50
2020,10,16,12,30,19.30
2020,10,16,12,31,25.70
2020,10,16,12,32,16.10
2020,10,16,12,33,22.50
2020,10,16,12,34,19.30
2020,10,16,12,35,24.20
2020,10,16,12,36,19.30
2020,10,16,12,37,32.20
2020,10,16,12,38,40.20
2020,10,16,12,39,33.80
2020,10,16,12,40,17.70
2020,10,16,12,41,9.60
2020,10,16,12,42,35.40
2020,10,16,12,43,33.80
2020,10,16,12,44,16.10
2020,10,16,12,45,25.70
2020,10,16,12,46,24.20
2020,10,16,12,47,22.50
2020,10,16,12,48,22.50
2020,10,16,12,49,22.50
2020,10,16,12,50,25.70
2020,10,16,12,51,22.50
2020,10,16,12,52,19.30
2020,10,16,12,53,16.10
2020,10,16,12,54,19.30
2020,10,16,12,55,29.00
2020,10,16,12,56,30.60
2020,10,16,12,57,29.00
2020,10,16,12,58,27.40
2020,10,16,12,59,20.90
2020,10,16,13,00,8.10
2020,10,16,13,01,32.20
2020,10,16,13,02,33.80
2020,10,16,13,03,24.20
2020,10,16,13,04,27.40
2020,10,16,13,05,24.20
2020,10,16,13,06,24.20
2020,10,16,13,07,27.40
2020,10,16,13,08,17.70
2020,10,16,13,09,22.50
2020,10,16,13,10,25.70
2020,10,16,13,11,16.10
2020,10,16,13,12,14.50
2020,10,16,13,13,12.90
2020,10,16,13,14,11.30
2020,10,16,13,15,16.10
2020,10,16,13,16,14.50
2020,10,16,13,17,24.20
2020,10,16,13,18,14.50
2020,10,16,13,19,17.70
2020,10,16,13,20,4.80
2020,10,16,13,21,20.90
2020,10,16,13,22,19.30
2020,10,16,13,23,30.60
2020,10,16,13,24,30.60
2020,10,16,13,25,24.20
2020,10,16,13,26,12.90
2020,10,16,13,27,14.50
2020,10,16,13,28,12.90
2020,10,16,13,29,27.40
2020,10,16,13,30,27.40
2020,10,16,13,31,22.50
2020,10,16,13,32,8.10
2020,10,16,13,33,17.70
2020,10,16,13,34,22.50
2020,10,16,13,35,25.70
2020,10,16,13,36,19.30
2020,10,16,13,37,16.10
2020,10,16,13,38,11.30
2020,10,16,13,39,22.50
2020,10,16,13,40,22.50
2020,10,16,13,41,22.50
2020,10,16,13,42,27.40
2020,10,16,13,43,14.50
2020,10,16,13,44,11.30
2020,10,16,13,45,19.30
2020,10,16,13,46,20.90
2020,10,16,13,47,20.90
2020,10,16,13,48,20.90
2020,10,16,13,49,22.50
2020,10,16,13,50,27.40
2020,10,16,13,51,30.60
2020,10,16,13,52,22.50
2020,10,16,13,53,22.50
2020,10,16,13,54,24.20
2020,10,16,13,55,27.40
2020,10,16,13,56,24.20
2020,10,16,13,57,19.30
2020,10,16,13,58,11.30
2020,10,16,13,59,20.90
2020,10,16,14,00,19.30
2020,10,16,14,01,17.70
2020,10,16,14,02,20.90
2020,10,16,14,03,25.70
2020,10,16,14,04,29.00
2020,10,16,14,05,22.50
2020,10,16,14,06,20.90
2020,10,16,14,07,22.50
2020,10,16,14,08,30.60
2020,10,16,14,09,17.70
2020,10,16,14,10,17.70
2020,10,16,14,11,8.10
2020,10,16,14,12,27.40
2020,10,16,14,13,17.70
2020,10,16,14,14,25.70
2020,10,16,14,15,17.70
2020,10,16,14,16,30.60
2020,10,16,14,17,20.90
2020,10,16,14,18,30.60
2020,10,16,14,19,29.00
2020,10,16,14,20,30.60
2020,10,16,14,21,19.30
2020,10,16,14,22,11.30
2020,10,16,14,23,16.10
2020,10,16,14,24,19.30
2020,10,16,14,25,20.90
2020,10,16,14,26,30.60
2020,10,16,14,27,24.20
2020,10,16,14,28,27.40
2020,10,16,14,29,22.50
2020,10,16,14,30,20.90
2020,10,16,14,31,14.50
2020,10,16,14,32,9.60
2020,10,16,14,33,19.30
2020,10,16,14,34,48.30
2020,10,16,14,35,29.00
2020,10,16,14,36,27.40
2020,10,16,14,37,22.50
2020,10,16,14,38,14.50
2020,10,16,14,39,29.00
2020,10,16,14,40,30.60
2020,10,16,14,41,25.70
2020,10,16,14,42,24.20
2020,10,16,14,43,22.50
2020,10,16,14,44,22.50
2020,10,16,14,45,22.50
2020,10,16,14,46,22.50
2020,10,16,14,47,22.50
2020,10,16,14,48,29.00
2020,10,16,14,49,25.70
2020,10,16,14,50,19.30
2020,10,16,14,51,22.50
2020,10,16,14,52,19.30
2020,10,16,14,53,24.20
2020,10,16,14,54,20.90
2020,10,16,14,55,22.50
2020,10,16,14,56,16.10
2020,10,16,14,57,19.30
2020,10,16,14,58,24.20
2020,10,16,14,59,24.20
2020,10,16,15,00,20.90
2020,10,16,15,01,17.70
2020,10,16,15,02,24.20
2020,10,16,15,03,24.20
2020,10,16,15,04,25.70
2020,10,16,15,05,20.90
2020,10,16,15,06,19.30
2020,10,16,15,07,22.50
2020,10,16,15,08,14.50
2020,10,16,15,09,22.50
2020,10,16,15,10,17.70
2020,10,16,15,11,20.90
2020,10,16,15,12,27.40
2020,10,16,15,13,16.10
2020,10,16,15,14,11.30
2020,10,16,15,15,11.30
2020,10,16,15,16,17.70
2020,10,16,15,17,17.70
2020,10,16,15,18,17.70
2020,10,16,15,19,11.30
2020,10,16,15,20,24.20
2020,10,16,15,21,16.10
2020,10,16,15,22,25.70
2020,10,16,15,23,25.70
2020,10,16,15,24,24.20
2020,10,16,15,25,20.90
2020,10,16,15,26,9.60
2020,10,16,15,27,14.50
2020,10,16,15,28,16.10
2020,10,16,15,29,16.10
2020,10,16,15,30,17.70
2020,10,16,15,31,17.70
2020,10,16,15,32,22.50
2020,10,16,15,33,22.50
2020,10,16,15,34,30.60
2020,10,16,15,35,19.30
2020,10,16,15,36,27.40
2020,10,16,15,37,24.20
2020,10,16,15,38,29.00
2020,10,16,15,39,29.00
2020,10,16,15,40,11.30
2020,10,16,15,41,27.40
2020,10,16,15,42,24.20
2020,10,16,15,43,27.40
2020,10,16,15,44,16.10
2020,10,16,15,45,22.50
2020,10,16,15,46,24.20
2020,10,16,15,47,24.20
2020,10,16,15,48,22.50
2020,10,16,15,49,22.50
2020,10,16,15,50,22.50
2020,10,16,15,51,20.90
2020,10,16,15,52,17.70
2020,10,16,15,53,22.50
2020,10,16,15,54,24.20
2020,10,16,15,55,17.70
2020,10,16,15,56,24.20
2020,10,16,15,57,20.90
2020,10,16,15,58,14.50
2020,10,16,15,59,22.50
2020,10,16,16,00,17.70
2020,10,16,16,01,17.70
2020,10,16,16,02,19.30
2020,10,16,16,03,27.40
2020,10,16,16,04,17.70
2020,10,16,16,05,22.50
2020,10,16,16,06,17.70
2020,10,16,16,07,17.70
2020,10,16,16,08,25.70
2020,10,16,16,09,16.10
2020,10,16,16,10,17.70
2020,10,16,16,11,22.50
2020,10,16,16,12,20.90
2020,10,16,16,13,16.10
2020,10,16,16,14,19.30
2020,10,16,16,15,22.50
2020,10,16,16,16,19.30
2020,10,16,16,17,11.30
2020,10,16,16,18,14.50
2020,10,16,16,19,22.50
2020,10,16,16,20,20.90
2020,10,16,16,21,16.10
2020,10,16,16,22,14.50
2020,10,16,16,23,20.90
2020,10,16,16,24,25.70
2020,10,16,16,25,17.70
2020,10,16,16,26,20.90
2020,10,16,16,27,20.90
2020,10,16,16,28,17.70
2020,10,16,16,29,27.40
2020,10,16,16,30,27.40
2020,10,16,16,31,22.50
2020,10,16,16,32,22.50
2020,10,16,16,33,11.30
2020,10,16,16,34,16.10
2020,10,16,16,35,19.30
2020,10,16,16,36,30.60
2020,10,16,16,37,16.10
2020,10,16,16,38,20.90
2020,10,16,16,39,17.70
2020,10,16,16,40,14.50
2020,10,16,16,41,19.30
2020,10,16,16,42,17.70
2020,10,16,16,43,11.30
2020,10,16,16,44,19.30
2020,10,16,16,45,20.90
2020,10,16,16,46,29.00
2020,10,16,16,47,11.30
2020,10,16,16,48,11.30
2020,10,16,16,49,14.50
2020,10,16,16,50,17.70
2020,10,16,16,51,24.20
2020,10,16,16,52,19.30
2020,10,16,16,53,27.40
2020,10,16,16,54,19.30
2020,10,16,16,55,20.90
2020,10,16,16,56,20.90
2020,10,16,16,57,22.50
2020,10,16,16,58,11.30
2020,10,16,16,59,9.60
2020,10,16,17,00,16.10
2020,10,16,17,01,8.10
2020,10,16,17,02,9.60
2020,10,16,17,03,16.10
2020,10,16,17,04,9.60
2020,10,16,17,05,19.30
2020,10,16,17,06,16.10
2020,10,16,17,07,14.50
2020,10,16,17,08,17.70
2020,10,16,17,09,8.10
2020,10,16,17,10,16.10
2020,10,16,17,11,19.30
2020,10,16,17,12,16.10
2020,10,16,17,13,11.30
2020,10,16,17,14,8.10
2020,10,16,17,15,9.60
2020,10,16,17,16,8.10
2020,10,16,17,17,11.30
2020,10,16,17,18,8.10
2020,10,16,17,19,3.20
2020,10,16,17,20,19.30
2020,10,16,17,21,16.10
2020,10,16,17,22,14.50
2020,10,16,17,23,16.10
2020,10,16,17,24,17.70
2020,10,16,17,25,8.10
2020,10,16,17,26,3.20
2020,10,16,17,27,9.60
2020,10,16,17,28,17.70
2020,10,16,17,29,8.10
2020,10,16,17,30,8.10
2020,10,16,17,31,11.30
2020,10,16,17,32,8.10
2020,10,16,17,33,4.80
2020,10,16,17,34,11.30
2020,10,16,17,35,19.30
2020,10,16,17,36,20.90
2020,10,16,17,37,25.70
2020,10,16,17,38,16.10
2020,10,16,17,39,8.10
2020,10,16,17,40,9.60
2020,10,16,17,41,9.60
2020,10,16,17,42,11.30
2020,10,16,17,43,12.90
2020,10,16,17,44,8.10
2020,10,16,17,45,16.10
2020,10,16,17,46,12.90
2020,10,16,17,47,11.30
2020,10,16,17,48,11.30
2020,10,16,17,49,11.30
2020,10,16,17,50,8.10
2020,10,16,17,51,8.10
2020,10,16,17,52,1.60
2020,10,16,17,53,3.20
2020,10,16,17,54,3.20
2020,10,16,17,56,9.60
2020,10,16,17,57,6.40
2020,10,16,17,59,1.60
2020,10,16,18,02,6.40
2020,10,16,18,03,9.60
2020,10,16,18,05,11.30
2020,10,16,18,06,9.60
2020,10,16,18,07,8.10
2020,10,16,18,08,6.40
2020,10,16,18,09,4.80
2020,10,16,18,10,8.10
2020,10,16,18,11,6.40
2020,10,16,18,12,1.60
2020,10,16,18,13,1.60
2020,10,16,18,14,4.80
2020,10,16,18,15,3.20
2020,10,16,18,16,3.20
2020,10,16,18,17,3.20
2020,10,16,18,19,6.40
2020,10,16,18,20,6.40
2020,10,16,18,21,8.10
2020,10,16,18,22,9.60
2020,10,16,18,23,6.40
2020,10,16,18,24,4.80
2020,10,16,18,25,4.80
2020,10,16,18,26,3.20
2020,10,16,18,30,4.80
2020,10,16,18,31,6.40
2020,10,16,18,32,3.20
2020,10,16,18,33,6.40
2020,10,16,18,34,9.60
2020,10,16,18,35,6.40
2020,10,16,19,03,4.80
2020,10,16,19,04,4.80
2020,10,16,19,05,3.20
2020,10,16,19,07,11.30
2020,10,16,19,08,4.80
2020,10,16,19,09,6.40
2020,10,16,19,10,11.30
2020,10,16,19,11,16.10
2020,10,16,19,12,11.30
2020,10,16,19,13,9.60
2020,10,16,19,14,3.20
2020,10,16,19,15,11.30
2020,10,16,19,16,6.40
2020,10,16,19,18,4.80
2020,10,16,19,21,6.40
2020,10,16,19,24,9.60
2020,10,16,19,25,9.60
2020,10,16,19,26,6.40
2020,10,16,19,27,14.50
2020,10,16,19,28,9.60
2020,10,16,19,29,3.20
2020,10,16,19,30,1.60
2020,10,16,19,31,11.30
2020,10,16,19,32,9.60
2020,10,16,19,34,3.20
2020,10,16,19,35,3.20
2020,10,16,19,36,1.60
2020,10,16,19,37,11.30
2020,10,16,19,38,16.10
2020,10,16,19,39,14.50
2020,10,16,19,40,12.90
2020,10,16,19,41,14.50
2020,10,16,19,42,11.30
2020,10,16,19,43,9.60
2020,10,16,19,44,11.30
2020,10,16,19,45,9.60
2020,10,16,19,46,8.10
2020,10,16,19,47,4.80
2020,10,16,19,48,11.30
2020,10,16,19,49,11.30
2020,10,16,19,50,6.40
2020,10,16,19,51,6.40
2020,10,16,19,52,11.30
2020,10,16,19,53,4.80
2020,10,16,19,54,4.80
2020,10,16,19,55,11.30
2020,10,16,19,56,8.10
2020,10,16,19,57,4.80
2020,10,16,19,58,11.30
2020,10,16,19,59,11.30
2020,10,16,20,00,3.20
2020,10,16,20,01,6.40
2020,10,16,20,03,9.60
2020,10,16,20,04,6.40
2020,10,16,20,05,11.30
2020,10,16,20,06,8.10
2020,10,16,20,07,8.10
2020,10,16,20,08,8.10
2020,10,16,20,09,16.10
2020,10,16,20,10,14.50
2020,10,16,20,11,9.60
2020,10,16,20,12,11.30
2020,10,16,20,13,11.30
2020,10,16,20,14,14.50
2020,10,16,20,15,8.10
2020,10,16,20,16,9.60
2020,10,16,20,17,8.10
2020,10,16,20,18,11.30
2020,10,16,20,19,9.60
2020,10,16,20,20,6.40
2020,10,16,20,21,9.60
2020,10,16,20,22,11.30
2020,10,16,20,23,9.60
2020,10,16,20,24,14.50
2020,10,16,20,25,9.60
2020,10,16,20,26,11.30
2020,10,16,20,27,11.30
2020,10,16,20,28,6.40
2020,10,16,20,29,11.30
2020,10,16,20,30,6.40
2020,10,16,20,31,8.10
2020,10,16,20,32,19.30
2020,10,16,20,33,19.30
2020,10,16,20,34,12.90
2020,10,16,20,35,8.10
2020,10,16,20,36,9.60
2020,10,16,20,37,19.30
2020,10,16,20,38,16.10
2020,10,16,20,39,8.10
2020,10,16,20,40,9.60
2020,10,16,20,41,4.80
2020,10,16,20,42,4.80
2020,10,16,20,43,8.10
2020,10,16,20,44,8.10
2020,10,16,20,45,16.10
2020,10,16,20,46,12.90
2020,10,16,20,47,4.80
2020,10,16,20,49,3.20
2020,10,16,20,50,11.30
2020,10,16,20,51,8.10
2020,10,16,20,52,8.10
2020,10,16,20,53,3.20
2020,10,16,20,55,4.80
2020,10,16,20,56,4.80
2020,10,16,20,57,3.20
2020,10,16,20,58,12.90
2020,10,16,20,59,9.60
2020,10,16,21,00,8.10
2020,10,16,21,01,9.60
2020,10,16,21,02,8.10
2020,10,16,21,03,9.60
2020,10,16,21,04,9.60
2020,10,16,21,05,14.50
2020,10,16,21,06,14.50
2020,10,16,21,07,16.10
2020,10,16,21,08,11.30
2020,10,16,21,09,3.20
2020,10,16,21,10,6.40
2020,10,16,21,11,4.80
2020,10,16,21,12,8.10
2020,10,16,21,13,6.40
2020,10,16,21,14,4.80
2020,10,16,21,15,8.10
2020,10,16,21,16,8.10
2020,10,16,21,17,6.40
2020,10,16,21,18,4.80
2020,10,16,21,20,6.40
2020,10,16,21,21,6.40
2020,10,16,21,22,6.40
2020,10,16,21,23,1.60
2020,10,16,21,26,9.60
2020,10,16,21,27,4.80
2020,10,16,21,29,6.40
2020,10,16,21,33,4.80
2020,10,16,21,35,3.20
2020,10,16,21,39,1.60
2020,10,16,21,40,6.40
2020,10,16,21,41,6.40
2020,10,16,21,43,8.10
2020,10,16,21,44,4.80
2020,10,16,21,45,4.80
2020,10,16,21,50,3.20
2020,10,16,21,51,6.40
2020,10,16,21,52,6.40
2020,10,16,21,53,6.40
2020,10,16,21,54,6.40
2020,10,16,21,55,3.20
2020,10,16,21,57,8.10
2020,10,16,21,58,6.40
2020,10,16,22,00,8.10
2020,10,16,22,02,6.40
2020,10,16,22,03,4.80
2020,10,16,22,05,4.80
2020,10,16,22,06,6.40
2020,10,16,22,07,3.20
2020,10,16,22,09,3.20
2020,10,16,22,16,4.80
2020,10,16,22,17,6.40
2020,10,16,22,18,4.80
2020,10,16,22,19,3.20
2020,10,16,22,22,1.60
2020,10,16,22,24,3.20
2020,10,16,22,26,4.80
2020,10,16,22,27,3.20
2020,10,16,22,54,6.40
2020,10,16,22,55,1.60
2020,10,16,22,57,3.20
2020,10,16,22,58,4.80
2020,10,16,23,01,4.80
2020,10,16,23,03,4.80
2020,10,16,23,04,4.80
2020,10,16,23,06,3.20
2020,10,16,23,07,3.20
2020,10,16,23,08,6.40
2020,10,16,23,09,4.80
2020,10,16,23,11,1.60
2020,10,16,23,12,4.80
2020,10,16,23,13,4.80
2020,10,16,23,16,4.80
2020,10,16,23,17,4.80
2020,10,16,23,20,3.20
2020,10,16,23,21,6.40
2020,10,16,23,22,8.10
2020,10,16,23,23,6.40
2020,10,16,23,26,3.20
2020,10,16,23,27,1.60
2020,10,16,23,28,9.60
2020,10,16,23,29,8.10
2020,10,16,23,30,4.80
2020,10,16,23,31,8.10
2020,10,16,23,32,8.10
2020,10,16,23,33,4.80
2020,10,16,23,35,4.80
2020,10,16,23,36,6.40
2020,10,16,23,37,6.40
2020,10,16,23,38,1.60
2020,10,16,23,40,1.60
2020,10,16,23,42,4.80
2020,10,16,23,43,3.20
2020,10,16,23,44,8.10
2020,10,16,23,45,4.80
2020,10,16,23,46,4.80
2020,10,16,23,48,3.20
2020,10,16,23,49,6.40
2020,10,16,23,50,11.30
2020,10,16,23,51,8.10
2020,10,16,23,52,4.80
2020,10,16,23,53,8.10
2020,10,16,23,54,8.10
2020,10,16,23,55,6.40
2020,10,16,23,56,4.80
2020,10,16,23,57,8.10
2020,10,16,23,58,4.80
2020,10,16,23,59,8.10
